Time,TemperatureF,DewpointF,PressureIn,WindDirection,WindDirectionDegrees,WindSpeedMPH,WindSpeedGustMPH,Humidity,HourlyPrecipIn,Conditions,Clouds,dailyrainin,SolarRadiationWatts/m^2,SoftwareType,DateUTC
2014-09-22 00:02:00,68.3,-10.0,29.70,NW,318,1.0,2.0,4,0.00,,,0.00,0,Wunderground v.1.15,2014-09-22 04:02:00,
2014-09-22 00:07:00,68.4,7.3,29.70,WNW,288,1.0,3.0,9,0.00,,,0.00,0,Wunderground v.1.15,2014-09-22 04:07:00,
2014-09-22 00:12:00,68.6,20.6,29.70,WNW,301,3.0,3.0,16,0.00,,,0.00,0,Wunderground v.1.15,2014-09-22 04:12:00,
2014-09-22 00:18:00,68.6,30.3,29.70,NW,319,3.0,6.0,24,0.00,,,0.00,0,Wunderground v.1.15,2014-09-22 04:18:00,
2014-09-22 00:23:00,68.8,35.2,29.70,NNW,329,4.0,4.0,29,0.00,,,0.00,0,Wunderground v.1.15,2014-09-22 04:23:00,
2014-09-22 00:28:00,68.8,33.4,29.70,WNW,284,3.0,4.0,27,0.00,,,0.00,0,Wunderground v.1.15,2014-09-22 04:28:00,
2014-09-22 00:29:00,68.8,33.4,29.70,WNW,284,2.0,4.0,27,0.00,,,0.00,0,Wunderground v.1.15,2014-09-22 04:29:00,
2014-09-22 00:34:00,68.6,30.3,29.70,WNW,284,1.0,2.0,24,0.00,,,0.00,0,Wunderground v.1.15,2014-09-22 04:34:00,
2014-09-22 00:40:00,68.4,28.0,29.71,WNW,284,0.0,1.0,22,0.00,,,0.00,0,Wunderground v.1.15,2014-09-22 04:40:00,
2014-09-22 00:44:00,68.4,25.7,29.71,WNW,284,0.0,2.0,20,0.00,,,0.00,0,Wunderground v.1.15,2014-09-22 04:44:00,
2014-09-22 00:49:00,68.4,21.8,29.72,NW,316,1.0,4.0,17,0.00,,,0.00,0,Wunderground v.1.15,2014-09-22 04:49:00,
2014-09-22 00:54:00,68.4,20.4,29.72,NNW,327,2.0,3.0,16,0.00,,,0.00,0,Wunderground v.1.15,2014-09-22 04:54:00,
2014-09-22 00:59:00,68.5,20.5,29.72,WNW,299,3.0,5.0,16,0.00,,,0.00,0,Wunderground v.1.15,2014-09-22 04:59:00,
2014-09-22 01:05:00,68.5,21.9,29.72,WNW,301,2.0,5.0,17,0.00,,,0.00,0,Wunderground v.1.15,2014-09-22 05:05:00,
2014-09-22 01:11:00,68.5,25.8,29.73,NW,317,3.0,5.0,20,0.00,,,0.00,0,Wunderground v.1.15,2014-09-22 05:11:00,
2014-09-22 01:16:00,68.5,30.3,29.73,NW,320,3.0,5.0,24,0.00,,,0.00,0,Wunderground v.1.15,2014-09-22 05:16:00,
2014-09-22 01:21:00,68.5,35.8,29.73,NW,326,2.0,5.0,30,0.00,,,0.00,0,Wunderground v.1.15,2014-09-22 05:21:00,
2014-09-22 01:26:00,68.3,36.5,29.73,NW,317,1.0,5.0,31,0.00,,,0.00,0,Wunderground v.1.15,2014-09-22 05:26:00,
2014-09-22 01:31:00,68.2,36.4,29.73,NW,317,0.0,5.0,31,0.00,,,0.00,0,Wunderground v.1.15,2014-09-22 05:31:00,
2014-09-22 01:37:00,68.1,35.5,29.74,NW,317,0.0,5.0,30,0.00,,,0.00,0,Wunderground v.1.15,2014-09-22 05:37:00,
2014-09-22 01:42:00,67.9,34.4,29.73,NW,317,0.0,5.0,29,0.00,,,0.00,0,Wunderground v.1.15,2014-09-22 05:42:00,
2014-09-22 01:47:00,67.5,30.4,29.74,NW,317,0.0,5.0,25,0.00,,,0.00,0,Wunderground v.1.15,2014-09-22 05:47:00,
2014-09-22 01:52:00,67.2,28.1,29.74,NW,317,0.0,5.0,23,0.00,,,0.00,0,Wunderground v.1.15,2014-09-22 05:52:00,
2014-09-22 01:57:00,67.0,23.3,29.74,NW,317,0.0,5.0,19,0.00,,,0.00,0,Wunderground v.1.15,2014-09-22 05:57:00,
2014-09-22 02:01:00,66.7,20.5,29.74,NW,317,0.0,1.0,17,0.00,,,0.00,0,Wunderground v.1.15,2014-09-22 06:01:00,
2014-09-22 02:06:00,66.4,15.7,29.74,NW,317,0.0,2.0,14,0.00,,,0.00,0,Wunderground v.1.15,2014-09-22 06:06:00,
2014-09-22 02:11:00,66.0,15.4,29.74,NW,317,0.0,0.0,14,0.00,,,0.00,0,Wunderground v.1.15,2014-09-22 06:11:00,
2014-09-22 02:16:00,65.7,9.7,29.74,NW,317,0.0,0.0,11,0.00,,,0.00,0,Wunderground v.1.15,2014-09-22 06:16:00,
2014-09-22 02:21:00,65.4,7.3,29.74,NW,317,0.0,0.0,10,0.00,,,0.00,0,Wunderground v.1.15,2014-09-22 06:21:00,
2014-09-22 02:26:00,65.1,4.8,29.74,NW,317,0.0,0.0,9,0.00,,,0.00,0,Wunderground v.1.15,2014-09-22 06:26:00,
2014-09-22 02:32:00,64.9,4.6,29.75,NW,317,0.0,0.0,9,0.00,,,0.00,0,Wunderground v.1.15,2014-09-22 06:32:00,
2014-09-22 02:37:00,64.6,4.4,29.75,NW,320,0.0,3.0,9,0.00,,,0.00,0,Wunderground v.1.15,2014-09-22 06:37:00,
2014-09-22 02:42:00,64.7,14.3,29.75,NW,311,1.0,3.0,14,0.00,,,0.00,0,Wunderground v.1.15,2014-09-22 06:42:00,
2014-09-22 02:47:00,64.8,28.1,29.75,NW,311,1.0,3.0,25,0.00,,,0.00,0,Wunderground v.1.15,2014-09-22 06:47:00,
2014-09-22 02:52:00,64.9,40.6,29.75,WSW,244,1.0,2.0,41,0.00,,,0.00,0,Wunderground v.1.15,2014-09-22 06:52:00,
2014-09-22 02:57:00,64.9,44.2,29.75,WNW,293,1.0,2.0,47,0.00,,,0.00,0,Wunderground v.1.15,2014-09-22 06:57:00,
2014-09-22 03:02:00,64.8,47.3,29.75,West,273,1.0,3.0,53,0.00,,,0.00,0,Wunderground v.1.15,2014-09-22 07:02:00,
2014-09-22 03:08:00,65.0,49.4,29.75,WNW,294,2.0,4.0,57,0.00,,,0.00,0,Wunderground v.1.15,2014-09-22 07:08:00,
2014-09-22 03:13:00,65.0,50.3,29.75,NNW,331,2.0,3.0,59,0.00,,,0.00,0,Wunderground v.1.15,2014-09-22 07:13:00,
2014-09-22 03:18:00,64.8,49.7,29.75,NNW,331,1.0,3.0,58,0.00,,,0.00,0,Wunderground v.1.15,2014-09-22 07:18:00,
2014-09-22 03:23:00,64.6,49.0,29.76,NNW,331,0.0,1.0,57,0.00,,,0.00,0,Wunderground v.1.15,2014-09-22 07:23:00,
2014-09-22 03:28:00,64.2,46.7,29.76,NNW,331,0.0,1.0,53,0.00,,,0.00,0,Wunderground v.1.15,2014-09-22 07:28:00,
2014-09-22 03:34:00,63.7,45.2,29.76,NNW,331,0.0,1.0,51,0.00,,,0.00,0,Wunderground v.1.15,2014-09-22 07:34:00,
2014-09-22 03:39:00,63.1,42.5,29.76,NNW,331,0.0,1.0,47,0.00,,,0.00,0,Wunderground v.1.15,2014-09-22 07:39:00,
2014-09-22 03:44:00,62.4,37.7,29.76,NNW,331,0.0,2.0,40,0.00,,,0.00,0,Wunderground v.1.15,2014-09-22 07:44:00,
2014-09-22 03:49:00,61.8,32.4,29.76,NNW,331,0.0,2.0,33,0.00,,,0.00,0,Wunderground v.1.15,2014-09-22 07:49:00,
2014-09-22 03:54:00,61.4,28.0,29.76,NNW,331,0.0,1.0,28,0.00,,,0.00,0,Wunderground v.1.15,2014-09-22 07:54:00,
2014-09-22 04:00:00,60.9,22.8,29.77,NNW,331,0.0,1.0,23,0.00,,,0.00,0,Wunderground v.1.15,2014-09-22 08:00:00,
2014-09-22 04:05:00,60.5,19.2,29.77,NNW,331,0.0,1.0,20,0.00,,,0.00,0,Wunderground v.1.15,2014-09-22 08:05:00,
2014-09-22 04:10:00,60.2,15.2,29.77,NNW,331,1.0,2.0,17,0.00,,,0.00,0,Wunderground v.1.15,2014-09-22 08:10:00,
2014-09-22 04:15:00,60.9,23.8,29.77,WNW,286,2.0,4.0,24,0.00,,,0.00,0,Wunderground v.1.15,2014-09-22 08:15:00,
2014-09-22 04:20:00,61.8,38.4,29.77,WNW,299,3.0,5.0,42,0.00,,,0.00,0,Wunderground v.1.15,2014-09-22 08:20:00,
2014-09-22 04:25:00,62.5,45.6,29.77,WSW,252,4.0,8.0,54,0.00,,,0.00,0,Wunderground v.1.15,2014-09-22 08:25:00,
2014-09-22 04:30:00,63.1,48.5,29.77,WNW,290,5.0,5.0,59,0.00,,,0.00,0,Wunderground v.1.15,2014-09-22 08:30:00,
2014-09-22 04:31:00,63.2,49.1,29.77,WNW,288,5.0,5.0,60,0.00,,,0.00,0,Wunderground v.1.15,2014-09-22 08:31:00,
2014-09-22 04:36:00,63.5,50.2,29.77,WSW,246,6.0,9.0,62,0.00,,,0.00,0,Wunderground v.1.15,2014-09-22 08:36:00,
2014-09-22 04:41:00,63.4,50.1,29.78,WNW,294,5.0,5.0,62,0.00,,,0.00,0,Wunderground v.1.15,2014-09-22 08:41:00,
2014-09-22 04:44:00,63.4,50.1,29.78,West,273,4.0,5.0,62,0.00,,,0.00,0,Wunderground v.1.15,2014-09-22 08:44:00,
2014-09-22 04:49:00,63.3,50.1,29.78,WNW,293,3.0,5.0,62,0.00,,,0.00,0,Wunderground v.1.15,2014-09-22 08:49:00,
2014-09-22 04:54:00,63.1,49.9,29.79,NW,306,2.0,4.0,62,0.00,,,0.00,0,Wunderground v.1.15,2014-09-22 08:54:00,
2014-09-22 04:59:00,63.0,49.8,29.79,WNW,303,2.0,5.0,62,0.00,,,0.00,0,Wunderground v.1.15,2014-09-22 08:59:00,
2014-09-22 05:05:00,62.9,49.7,29.79,WNW,294,2.0,4.0,62,0.00,,,0.00,0,Wunderground v.1.15,2014-09-22 09:05:00,
2014-09-22 05:10:00,62.7,49.1,29.79,WSW,251,2.0,2.0,61,0.00,,,0.00,0,Wunderground v.1.15,2014-09-22 09:10:00,
2014-09-22 05:15:00,62.6,49.0,29.80,West,265,3.0,5.0,61,0.00,,,0.00,0,Wunderground v.1.15,2014-09-22 09:15:00,
2014-09-22 05:20:00,62.5,48.9,29.80,West,275,3.0,3.0,61,0.00,,,0.00,0,Wunderground v.1.15,2014-09-22 09:20:00,
2014-09-22 05:25:00,62.5,49.3,29.80,WNW,295,4.0,4.0,62,0.00,,,0.00,0,Wunderground v.1.15,2014-09-22 09:25:00,
2014-09-22 05:31:00,62.3,49.1,29.80,WNW,294,3.0,3.0,62,0.00,,,0.00,0,Wunderground v.1.15,2014-09-22 09:31:00,
2014-09-22 05:36:00,62.3,49.5,29.81,WNW,290,3.0,7.0,63,0.00,,,0.00,0,Wunderground v.1.15,2014-09-22 09:36:00,
2014-09-22 05:41:00,62.5,50.2,29.81,NW,308,4.0,5.0,64,0.00,,,0.00,0,Wunderground v.1.15,2014-09-22 09:41:00,
2014-09-22 05:46:00,62.6,50.2,29.81,NW,306,4.0,6.0,64,0.00,,,0.00,0,Wunderground v.1.15,2014-09-22 09:46:00,
2014-09-22 05:51:00,62.4,50.1,29.82,West,269,3.0,5.0,64,0.00,,,0.00,0,Wunderground v.1.15,2014-09-22 09:51:00,
2014-09-22 05:57:00,62.3,50.0,29.82,West,275,2.0,6.0,64,0.00,,,0.00,0,Wunderground v.1.15,2014-09-22 09:57:00,
2014-09-22 06:02:00,62.2,49.9,29.83,WSW,243,3.0,6.0,64,0.00,,,0.00,0,Wunderground v.1.15,2014-09-22 10:02:00,
2014-09-22 06:06:00,62.0,49.7,29.83,West,276,3.0,6.0,64,0.00,,,0.00,0,Wunderground v.1.15,2014-09-22 10:06:00,
2014-09-22 06:11:00,61.9,49.6,29.83,SW,217,3.0,5.0,64,0.00,,,0.00,0,Wunderground v.1.15,2014-09-22 10:11:00,
2014-09-22 06:17:00,61.8,49.5,29.83,WNW,302,3.0,5.0,64,0.00,,,0.00,0,Wunderground v.1.15,2014-09-22 10:17:00,
2014-09-22 06:22:00,61.6,49.3,29.84,West,272,3.0,5.0,64,0.00,,,0.00,0,Wunderground v.1.15,2014-09-22 10:22:00,
2014-09-22 06:27:00,61.5,49.2,29.84,NW,304,3.0,5.0,64,0.00,,,0.00,0,Wunderground v.1.15,2014-09-22 10:27:00,
2014-09-22 06:32:00,61.7,49.4,29.84,NW,319,3.0,5.0,64,0.00,,,0.00,0,Wunderground v.1.15,2014-09-22 10:32:00,
2014-09-22 06:37:00,61.6,49.3,29.84,WNW,288,3.0,5.0,64,0.00,,,0.00,0,Wunderground v.1.15,2014-09-22 10:37:00,
2014-09-22 06:42:00,61.3,49.0,29.85,West,273,2.0,4.0,64,0.00,,,0.00,0,Wunderground v.1.15,2014-09-22 10:42:00,
2014-09-22 06:48:00,61.2,48.9,29.85,NW,305,2.0,5.0,64,0.00,,,0.00,0,Wunderground v.1.15,2014-09-22 10:48:00,
2014-09-22 06:53:00,61.1,48.4,29.86,West,269,2.0,5.0,63,0.00,,,0.00,5,Wunderground v.1.15,2014-09-22 10:53:00,
2014-09-22 06:58:00,61.1,48.8,29.86,WNW,284,3.0,5.0,64,0.00,,,0.00,7,Wunderground v.1.15,2014-09-22 10:58:00,
2014-09-22 07:03:00,61.1,48.4,29.86,NW,315,4.0,4.0,63,0.00,,,0.00,9,Wunderground v.1.15,2014-09-22 11:03:00,
2014-09-22 07:08:00,61.0,48.3,29.86,WNW,297,3.0,7.0,63,0.00,,,0.00,11,Wunderground v.1.15,2014-09-22 11:08:00,
2014-09-22 07:13:00,61.1,48.8,29.87,WNW,300,3.0,5.0,64,0.00,,,0.00,12,Wunderground v.1.15,2014-09-22 11:13:00,
2014-09-22 07:19:00,61.0,48.3,29.87,WNW,297,2.0,5.0,63,0.00,,,0.00,16,Wunderground v.1.15,2014-09-22 11:19:00,
2014-09-22 07:24:00,60.9,48.2,29.88,WSW,257,1.0,2.0,63,0.00,,,0.00,18,Wunderground v.1.15,2014-09-22 11:24:00,
2014-09-22 07:29:00,60.9,48.2,29.88,NW,310,1.0,2.0,63,0.00,,,0.00,19,Wunderground v.1.15,2014-09-22 11:29:00,
2014-09-22 07:34:00,60.9,48.2,29.89,NW,304,2.0,3.0,63,0.00,,,0.00,21,Wunderground v.1.15,2014-09-22 11:34:00,
2014-09-22 07:39:00,61.1,48.4,29.89,WNW,296,2.0,4.0,63,0.00,,,0.00,40,Wunderground v.1.15,2014-09-22 11:39:00,
2014-09-22 07:45:00,61.2,48.9,29.89,NW,317,3.0,4.0,64,0.00,,,0.00,67,Wunderground v.1.15,2014-09-22 11:45:00,
2014-09-22 07:50:00,61.4,49.1,29.89,NW,309,3.0,5.0,64,0.00,,,0.00,26,Wunderground v.1.15,2014-09-22 11:50:00,
2014-09-22 07:55:00,61.6,49.3,29.89,WNW,285,4.0,6.0,64,0.00,,,0.00,26,Wunderground v.1.15,2014-09-22 11:55:00,
2014-09-22 08:00:00,61.7,49.4,29.90,WNW,294,4.0,4.0,64,0.00,,,0.00,28,Wunderground v.1.15,2014-09-22 12:00:00,
2014-09-22 08:05:00,62.0,49.7,29.90,West,279,4.0,6.0,64,0.00,,,0.00,60,Wunderground v.1.15,2014-09-22 12:05:00,
2014-09-22 08:11:00,62.4,50.5,29.90,NW,304,5.0,7.0,65,0.00,,,0.00,227,Wunderground v.1.15,2014-09-22 12:11:00,
2014-09-22 08:16:00,62.7,51.2,29.91,WNW,288,5.0,7.0,66,0.00,,,0.00,250,Wunderground v.1.15,2014-09-22 12:16:00,
2014-09-22 08:21:00,62.9,51.4,29.91,NW,320,5.0,5.0,66,0.00,,,0.00,269,Wunderground v.1.15,2014-09-22 12:21:00,
2014-09-22 08:26:00,63.2,51.6,29.91,West,275,5.0,8.0,66,0.00,,,0.00,288,Wunderground v.1.15,2014-09-22 12:26:00,
2014-09-22 08:31:00,63.4,51.8,29.91,NNW,333,6.0,9.0,66,0.00,,,0.00,302,Wunderground v.1.15,2014-09-22 12:31:00,
2014-09-22 08:37:00,63.7,52.1,29.92,West,261,6.0,9.0,66,0.00,,,0.00,323,Wunderground v.1.15,2014-09-22 12:37:00,
2014-09-22 08:42:00,63.9,52.3,29.92,West,269,6.0,8.0,66,0.00,,,0.00,339,Wunderground v.1.15,2014-09-22 12:42:00,
2014-09-22 08:47:00,64.0,52.4,29.92,NNW,329,7.0,8.0,66,0.00,,,0.00,357,Wunderground v.1.15,2014-09-22 12:47:00,
2014-09-22 08:52:00,64.2,52.6,29.92,WNW,284,7.0,11.0,66,0.00,,,0.00,373,Wunderground v.1.15,2014-09-22 12:52:00,
2014-09-22 08:57:00,64.3,52.7,29.93,NW,322,8.0,13.0,66,0.00,,,0.00,390,Wunderground v.1.15,2014-09-22 12:57:00,
2014-09-22 09:03:00,64.4,52.8,29.93,West,273,8.0,9.0,66,0.00,,,0.00,410,Wunderground v.1.15,2014-09-22 13:03:00,
2014-09-22 09:08:00,64.5,52.9,29.93,West,281,7.0,11.0,66,0.00,,,0.00,427,Wunderground v.1.15,2014-09-22 13:08:00,
2014-09-22 09:13:00,64.6,53.0,29.94,WNW,295,8.0,12.0,66,0.00,,,0.00,448,Wunderground v.1.15,2014-09-22 13:13:00,
2014-09-22 09:18:00,64.7,53.1,29.94,WNW,284,8.0,17.0,66,0.00,,,0.00,455,Wunderground v.1.15,2014-09-22 13:18:00,
2014-09-22 09:23:00,64.9,53.3,29.94,WNW,300,8.0,9.0,66,0.00,,,0.00,469,Wunderground v.1.15,2014-09-22 13:23:00,
2014-09-22 09:28:00,65.3,53.6,29.94,WNW,295,7.0,9.0,66,0.00,,,0.00,499,Wunderground v.1.15,2014-09-22 13:28:00,
2014-09-22 09:34:00,65.3,53.6,29.94,WNW,296,7.0,9.0,66,0.00,,,0.00,506,Wunderground v.1.15,2014-09-22 13:34:00,
2014-09-22 09:39:00,65.5,53.4,29.95,NW,320,8.0,11.0,65,0.00,,,0.00,497,Wunderground v.1.15,2014-09-22 13:39:00,
2014-09-22 09:44:00,65.7,53.6,29.95,NNW,332,7.0,11.0,65,0.00,,,0.00,552,Wunderground v.1.15,2014-09-22 13:44:00,
2014-09-22 09:48:00,65.7,53.6,29.95,NW,310,8.0,11.0,65,0.00,,,0.00,592,Wunderground v.1.15,2014-09-22 13:48:00,
2014-09-22 09:54:00,65.8,53.7,29.95,NW,326,9.0,10.0,65,0.00,,,0.00,622,Wunderground v.1.15,2014-09-22 13:54:00,
2014-09-22 09:59:00,65.7,53.6,29.95,NW,320,9.0,13.0,65,0.00,,,0.00,673,Wunderground v.1.15,2014-09-22 13:59:00,
2014-09-22 10:04:00,65.8,53.7,29.96,NW,310,9.0,12.0,65,0.00,,,0.00,636,Wunderground v.1.15,2014-09-22 14:04:00,
2014-09-22 10:09:00,65.6,53.5,29.96,NNW,342,8.0,12.0,65,0.00,,,0.00,696,Wunderground v.1.15,2014-09-22 14:09:00,
2014-09-22 10:14:00,65.8,53.3,29.96,NW,324,9.0,16.0,64,0.00,,,0.00,679,Wunderground v.1.15,2014-09-22 14:14:00,
2014-09-22 10:19:00,66.3,54.2,29.97,NW,318,9.0,16.0,65,0.00,,,0.00,745,Wunderground v.1.15,2014-09-22 14:19:00,
2014-09-22 10:25:00,66.8,53.8,29.97,WNW,286,8.0,14.0,63,0.00,,,0.00,323,Wunderground v.1.15,2014-09-22 14:25:00,
2014-09-22 10:30:00,66.5,53.9,29.97,WNW,302,7.0,9.0,64,0.00,,,0.00,176,Wunderground v.1.15,2014-09-22 14:30:00,
2014-09-22 10:35:00,65.9,52.9,29.97,NNW,342,6.0,14.0,63,0.00,,,0.00,178,Wunderground v.1.15,2014-09-22 14:35:00,
2014-09-22 10:40:00,66.5,53.9,29.97,West,263,8.0,8.0,64,0.00,,,0.00,809,Wunderground v.1.15,2014-09-22 14:40:00,
2014-09-22 10:45:00,67.5,54.9,29.97,North,5,7.0,8.0,64,0.00,,,0.00,315,Wunderground v.1.15,2014-09-22 14:45:00,
2014-09-22 10:51:00,67.5,54.0,29.97,WNW,295,6.0,7.0,62,0.00,,,0.00,297,Wunderground v.1.15,2014-09-22 14:51:00,
2014-09-22 10:56:00,67.0,54.0,29.97,NW,318,6.0,7.0,63,0.00,,,0.00,167,Wunderground v.1.15,2014-09-22 14:56:00,
2014-09-22 11:01:00,66.3,53.8,29.97,WNW,295,6.0,10.0,64,0.00,,,0.00,179,Wunderground v.1.15,2014-09-22 15:01:00,
2014-09-22 11:06:00,65.6,53.1,29.97,WNW,294,7.0,11.0,64,0.00,,,0.00,202,Wunderground v.1.15,2014-09-22 15:06:00,
2014-09-22 11:11:00,65.5,53.4,29.97,NW,321,8.0,17.0,65,0.00,,,0.00,250,Wunderground v.1.15,2014-09-22 15:11:00,
2014-09-22 11:17:00,65.4,53.3,29.98,NW,317,9.0,17.0,65,0.00,,,0.00,279,Wunderground v.1.15,2014-09-22 15:17:00,
2014-09-22 11:22:00,65.6,53.5,29.98,NW,326,7.0,8.0,65,0.00,,,0.00,295,Wunderground v.1.15,2014-09-22 15:22:00,
2014-09-22 11:27:00,65.7,53.2,29.98,West,274,7.0,12.0,64,0.00,,,0.00,413,Wunderground v.1.15,2014-09-22 15:27:00,
2014-09-22 11:32:00,66.3,53.8,29.98,WNW,292,7.0,8.0,64,0.00,,,0.00,396,Wunderground v.1.15,2014-09-22 15:32:00,
2014-09-22 11:37:00,66.2,53.2,29.98,NW,315,7.0,8.0,63,0.00,,,0.00,411,Wunderground v.1.15,2014-09-22 15:37:00,
2014-09-22 11:43:00,67.2,54.6,29.98,West,278,6.0,7.0,64,0.00,,,0.00,898,Wunderground v.1.15,2014-09-22 15:43:00,
2014-09-22 11:48:00,67.9,54.0,29.98,West,270,5.0,12.0,61,0.00,,,0.00,1037,Wunderground v.1.15,2014-09-22 15:48:00,
2014-09-22 11:53:00,67.1,52.7,29.99,WNW,294,6.0,12.0,60,0.00,,,0.00,218,Wunderground v.1.15,2014-09-22 15:53:00,
2014-09-22 11:58:00,66.5,52.6,29.99,WNW,302,7.0,12.0,61,0.00,,,0.00,246,Wunderground v.1.15,2014-09-22 15:58:00,
2014-09-22 12:03:00,66.6,53.2,29.99,West,279,5.0,7.0,62,0.00,,,0.00,267,Wunderground v.1.15,2014-09-22 16:03:00,
2014-09-22 12:09:00,66.7,53.3,29.99,WNW,300,5.0,7.0,62,0.00,,,0.00,246,Wunderground v.1.15,2014-09-22 16:09:00,
2014-09-22 12:14:00,66.7,52.8,29.99,NW,311,6.0,9.0,61,0.00,,,0.00,345,Wunderground v.1.15,2014-09-22 16:14:00,
2014-09-22 12:19:00,66.8,52.9,29.99,NW,316,6.0,9.0,61,0.00,,,0.00,244,Wunderground v.1.15,2014-09-22 16:19:00,
2014-09-22 12:24:00,66.7,53.3,29.99,NW,325,6.0,10.0,62,0.00,,,0.00,264,Wunderground v.1.15,2014-09-22 16:24:00,
2014-09-22 12:29:00,66.5,53.5,29.99,NW,319,7.0,10.0,63,0.00,,,0.00,339,Wunderground v.1.15,2014-09-22 16:29:00,
2014-09-22 12:35:00,67.2,53.3,30.00,NNW,342,5.0,7.0,61,0.00,,,0.00,287,Wunderground v.1.15,2014-09-22 16:35:00,
2014-09-22 12:40:00,66.8,52.9,30.00,NNW,333,7.0,7.0,61,0.00,,,0.00,271,Wunderground v.1.15,2014-09-22 16:40:00,
2014-09-22 12:45:00,66.7,52.8,29.99,NW,317,7.0,11.0,61,0.00,,,0.00,243,Wunderground v.1.15,2014-09-22 16:45:00,
2014-09-22 12:50:00,66.5,53.5,30.00,West,280,5.0,6.0,63,0.00,,,0.00,888,Wunderground v.1.15,2014-09-22 16:50:00,
2014-09-22 12:55:00,67.6,53.7,30.00,NW,321,7.0,9.0,61,0.00,,,0.00,991,Wunderground v.1.15,2014-09-22 16:55:00,
2014-09-22 13:00:00,67.4,53.0,30.00,NW,311,9.0,10.0,60,0.00,,,0.00,346,Wunderground v.1.15,2014-09-22 17:00:00,
2014-09-22 13:05:00,67.2,52.8,30.00,North,11,8.0,11.0,60,0.00,,,0.00,413,Wunderground v.1.15,2014-09-22 17:05:00,
2014-09-22 13:10:00,67.4,53.0,30.00,WSW,257,6.0,13.0,60,0.00,,,0.00,301,Wunderground v.1.15,2014-09-22 17:10:00,
2014-09-22 13:16:00,67.5,53.1,30.00,WNW,301,7.0,15.0,60,0.00,,,0.00,345,Wunderground v.1.15,2014-09-22 17:16:00,
2014-09-22 13:21:00,67.0,52.7,30.00,WNW,291,9.0,14.0,60,0.00,,,0.00,279,Wunderground v.1.15,2014-09-22 17:21:00,
2014-09-22 13:26:00,66.9,52.6,30.00,WNW,302,8.0,14.0,60,0.00,,,0.00,301,Wunderground v.1.15,2014-09-22 17:26:00,
2014-09-22 13:31:00,67.6,53.2,30.00,NNW,345,7.0,9.0,60,0.00,,,0.00,944,Wunderground v.1.15,2014-09-22 17:31:00,
2014-09-22 13:36:00,68.1,52.8,30.00,WNW,289,7.0,11.0,58,0.00,,,0.00,1058,Wunderground v.1.15,2014-09-22 17:36:00,
2014-09-22 13:41:00,67.3,52.0,30.01,NNE,33,8.0,8.0,58,0.00,,,0.00,260,Wunderground v.1.15,2014-09-22 17:41:00,
2014-09-22 13:46:00,67.0,53.1,30.01,NNW,327,6.0,8.0,61,0.00,,,0.00,262,Wunderground v.1.15,2014-09-22 17:46:00,
2014-09-22 13:51:00,66.7,52.4,30.01,NW,306,5.0,6.0,60,0.00,,,0.00,278,Wunderground v.1.15,2014-09-22 17:51:00,
2014-09-22 13:57:00,66.5,52.2,30.01,NNW,336,7.0,12.0,60,0.00,,,0.00,371,Wunderground v.1.15,2014-09-22 17:57:00,
2014-09-22 14:02:00,66.9,52.6,30.01,WSW,248,6.0,6.0,60,0.00,,,0.00,279,Wunderground v.1.15,2014-09-22 18:02:00,
2014-09-22 14:07:00,66.7,51.9,30.01,NW,311,6.0,9.0,59,0.00,,,0.00,271,Wunderground v.1.15,2014-09-22 18:07:00,
2014-09-22 14:12:00,66.7,51.9,30.01,WNW,299,6.0,10.0,59,0.00,,,0.00,315,Wunderground v.1.15,2014-09-22 18:12:00,
2014-09-22 14:17:00,66.7,51.5,30.02,NNW,337,6.0,10.0,58,0.00,,,0.00,309,Wunderground v.1.15,2014-09-22 18:17:00,
2014-09-22 14:23:00,67.1,52.7,30.02,West,273,6.0,8.0,60,0.00,,,0.00,559,Wunderground v.1.15,2014-09-22 18:23:00,
2014-09-22 14:28:00,67.0,52.2,30.02,NW,316,7.0,12.0,59,0.00,,,0.00,308,Wunderground v.1.15,2014-09-22 18:28:00,
2014-09-22 14:33:00,67.6,52.8,30.01,WNW,284,6.0,8.0,59,0.00,,,0.00,823,Wunderground v.1.15,2014-09-22 18:33:00,
2014-09-22 14:38:00,68.1,52.3,30.01,NW,325,6.0,8.0,57,0.00,,,0.00,824,Wunderground v.1.15,2014-09-22 18:38:00,
2014-09-22 14:43:00,69.3,52.4,30.01,West,270,6.0,9.0,55,0.00,,,0.00,923,Wunderground v.1.15,2014-09-22 18:43:00,
2014-09-22 14:49:00,69.5,51.6,30.02,WNW,292,7.0,10.0,53,0.00,,,0.00,278,Wunderground v.1.15,2014-09-22 18:49:00,
2014-09-22 14:54:00,68.9,51.6,30.02,NNW,331,7.0,11.0,54,0.00,,,0.00,271,Wunderground v.1.15,2014-09-22 18:54:00,
2014-09-22 14:59:00,67.8,51.0,30.02,WNW,286,7.0,11.0,55,0.00,,,0.00,202,Wunderground v.1.15,2014-09-22 18:59:00,
2014-09-22 15:04:00,67.1,50.9,30.02,NW,317,8.0,8.0,56,0.00,,,0.00,243,Wunderground v.1.15,2014-09-22 19:04:00,
2014-09-22 15:09:00,67.0,51.3,30.02,WNW,303,7.0,8.0,57,0.00,,,0.00,297,Wunderground v.1.15,2014-09-22 19:09:00,
2014-09-22 15:15:00,68.1,52.8,30.02,West,272,6.0,11.0,58,0.00,,,0.00,466,Wunderground v.1.15,2014-09-22 19:15:00,
2014-09-22 15:20:00,68.4,52.1,30.02,NW,323,7.0,7.0,56,0.00,,,0.00,860,Wunderground v.1.15,2014-09-22 19:20:00,
2014-09-22 15:25:00,68.4,51.6,30.02,WNW,293,7.0,7.0,55,0.00,,,0.00,204,Wunderground v.1.15,2014-09-22 19:25:00,
2014-09-22 15:30:00,67.6,51.3,30.02,NW,321,5.0,8.0,56,0.00,,,0.00,199,Wunderground v.1.15,2014-09-22 19:30:00,
2014-09-22 15:35:00,67.4,51.2,30.02,NW,315,6.0,11.0,56,0.00,,,0.00,638,Wunderground v.1.15,2014-09-22 19:35:00,
2014-09-22 15:41:00,68.3,51.0,30.02,WNW,294,7.0,7.0,54,0.00,,,0.00,608,Wunderground v.1.15,2014-09-22 19:41:00,
2014-09-22 15:46:00,69.4,52.0,30.02,WNW,294,7.0,9.0,54,0.00,,,0.00,606,Wunderground v.1.15,2014-09-22 19:46:00,
2014-09-22 15:51:00,68.9,51.1,30.02,WNW,287,7.0,11.0,53,0.00,,,0.00,174,Wunderground v.1.15,2014-09-22 19:51:00,
2014-09-22 15:56:00,68.3,51.0,30.02,WNW,298,7.0,11.0,54,0.00,,,0.00,141,Wunderground v.1.15,2014-09-22 19:56:00,
2014-09-22 16:01:00,67.9,51.1,30.03,NW,315,7.0,7.0,55,0.00,,,0.00,531,Wunderground v.1.15,2014-09-22 20:01:00,
2014-09-22 16:07:00,67.6,50.4,30.03,NW,304,8.0,12.0,54,0.00,,,0.00,499,Wunderground v.1.15,2014-09-22 20:07:00,
2014-09-22 16:12:00,67.9,50.6,30.03,NNW,336,8.0,8.0,54,0.00,,,0.00,494,Wunderground v.1.15,2014-09-22 20:12:00,
2014-09-22 16:17:00,67.9,51.1,30.03,NW,316,6.0,13.0,55,0.00,,,0.00,478,Wunderground v.1.15,2014-09-22 20:17:00,
2014-09-22 16:22:00,68.3,51.0,30.03,NW,325,6.0,6.0,54,0.00,,,0.00,439,Wunderground v.1.15,2014-09-22 20:22:00,
2014-09-22 16:27:00,68.1,50.3,30.03,WNW,291,7.0,13.0,53,0.00,,,0.00,425,Wunderground v.1.15,2014-09-22 20:27:00,
2014-09-22 16:33:00,67.7,50.9,30.03,NNW,337,8.0,9.0,55,0.00,,,0.00,404,Wunderground v.1.15,2014-09-22 20:33:00,
2014-09-22 16:38:00,68.0,51.7,30.04,NW,319,7.0,10.0,56,0.00,,,0.00,385,Wunderground v.1.15,2014-09-22 20:38:00,
2014-09-22 16:43:00,67.1,49.4,30.04,WNW,286,7.0,14.0,53,0.00,,,0.00,373,Wunderground v.1.15,2014-09-22 20:43:00,
2014-09-22 16:48:00,66.8,49.1,30.04,NW,305,9.0,14.0,53,0.00,,,0.00,350,Wunderground v.1.15,2014-09-22 20:48:00,
2014-09-22 16:53:00,66.4,48.7,30.04,West,265,8.0,10.0,53,0.00,,,0.00,334,Wunderground v.1.15,2014-09-22 20:53:00,
2014-09-22 16:59:00,66.1,48.5,30.05,NW,316,9.0,12.0,53,0.00,,,0.00,320,Wunderground v.1.15,2014-09-22 20:59:00,
2014-09-22 17:04:00,65.9,48.8,30.05,NE,36,9.0,16.0,54,0.00,,,0.00,304,Wunderground v.1.15,2014-09-22 21:04:00,
2014-09-22 17:09:00,65.8,48.2,30.05,WNW,300,9.0,16.0,53,0.00,,,0.00,287,Wunderground v.1.15,2014-09-22 21:09:00,
2014-09-22 17:14:00,66.0,48.9,30.05,WNW,296,8.0,11.0,54,0.00,,,0.00,269,Wunderground v.1.15,2014-09-22 21:14:00,
2014-09-22 17:19:00,66.2,48.6,30.05,NW,315,7.0,11.0,53,0.00,,,0.00,250,Wunderground v.1.15,2014-09-22 21:19:00,
2014-09-22 17:25:00,66.3,48.7,30.06,NNW,339,6.0,9.0,53,0.00,,,0.00,223,Wunderground v.1.15,2014-09-22 21:25:00,